This is the latest recevied weather packets stored in our database for station/object XE2RCS-1. If no packets are shown the sender has not sent any weather packets the latest 10 day(s).
| Time | Temp. | Humidity | Pressure | Rain* | Wind** | Luminosity | Snow |
|---|---|---|---|---|---|---|---|
| 1777507743 | 28.89° C | 57% | 1008 hPa | 0 mm | - | - | - |
| 1777507142 | 28.33° C | 46% | 1008 hPa | 0 mm | - | - | - |
| 1777506542 | 28.33° C | 46% | 1008 hPa | 0 mm | - | - | - |
| 1777505941 | 28.89° C | 45% | 1008 hPa | 0 mm | - | - | - |
| 1777505341 | 30° C | 45% | 1007 hPa | 0 mm | - | - | - |
| 1777504740 | 30° C | 44% | 1007 hPa | 0 mm | - | - | - |
| 1777504139 | 30° C | 43% | 1007 hPa | 0 mm | - | - | - |
| 1777503539 | 30° C | 39% | 1007 hPa | 0 mm | - | - | - |
| 1777502938 | 31.67° C | 37% | 1007 hPa | 0 mm | - | - | - |
| 1777502337 | 31.11° C | 35% | 1007 hPa | 0 mm | - | - | - |
| 1777501737 | 31.67° C | 31% | 1007 hPa | 0 mm | - | - | - |
| 1777501136 | 31.67° C | 30% | 1007 hPa | 0 mm | - | - | - |
| 1777500536 | 32.22° C | 29% | 1007 hPa | 0 mm | - | - | - |
| 1777499935 | 31.67° C | 27% | 1007 hPa | 0 mm | - | - | - |
| 1777499334 | 31.67° C | 27% | 1007 hPa | 0 mm | - | - | - |
| 1777498733 | 32.22° C | 29% | 1007 hPa | 0 mm | - | - | - |
| 1777498133 | 32.22° C | 29% | 1007 hPa | 0 mm | - | - | - |
| 1777497532 | 32.22° C | 29% | 1007 hPa | 0 mm | - | - | - |
| 1777496932 | 32.78° C | 29% | 1007 hPa | 0 mm | - | - | - |
| 1777496331 | 31.67° C | 27% | 1007 hPa | 0 mm | - | - | - |
| 1777495730 | 31.67° C | 28% | 1007 hPa | 0 mm | - | - | - |
| 1777495130 | 32.78° C | 29% | 1007 hPa | 0 mm | - | - | - |
| 1777494529 | 31.11° C | 27% | 1008 hPa | 0 mm | - | - | - |
| 1777493929 | 31.11° C | 28% | 1008 hPa | 0 mm | - | - | - |
| 1777493328 | 31.11° C | 29% | 1008 hPa | 0 mm | - | - | - |
* Rain latest hour (hover to see other rain measurements)
** Current wind speed in m/s (hover to see current wind gust speed)